Time,TemperatureF,DewpointF,PressureIn,WindDirection,WindDirectionDegrees,WindSpeedMPH,WindSpeedGustMPH,Humidity,HourlyPrecipIn,Conditions,Clouds,dailyrainin,SoftwareType,DateUTC
2013-03-22 00:02:00,29.0,18.0,26.98,SW,225,0.0,6.0,64,0.00,,,0.00,Rainwise IP-100,2013-03-22 06:02:00,
2013-03-22 00:07:00,29.0,18.0,26.98,SW,225,0.0,1.0,65,0.00,,,0.00,Rainwise IP-100,2013-03-22 06:07:00,
2013-03-22 00:12:00,29.0,18.0,26.98,SW,225,0.0,1.0,65,0.00,,,0.00,Rainwise IP-100,2013-03-22 06:12:00,
2013-03-22 00:17:00,29.0,18.0,26.98,South,180,2.0,3.0,65,0.00,,,0.00,Rainwise IP-100,2013-03-22 06:17:00,
2013-03-22 00:22:00,29.0,18.0,26.97,South,180,0.0,3.0,65,0.00,,,0.00,Rainwise IP-100,2013-03-22 06:22:00,
2013-03-22 00:27:00,30.0,21.0,26.97,South,180,3.0,4.0,65,0.00,,,0.00,Rainwise IP-100,2013-03-22 06:27:00,
2013-03-22 00:32:00,30.0,21.0,26.97,South,180,3.0,4.0,63,0.00,,,0.00,Rainwise IP-100,2013-03-22 06:32:00,
2013-03-22 00:37:00,30.0,21.0,26.97,South,180,3.0,5.0,63,0.00,,,0.00,Rainwise IP-100,2013-03-22 06:37:00,
2013-03-22 00:42:00,30.0,21.0,26.97,SSW,202,3.0,4.0,63,0.00,,,0.00,Rainwise IP-100,2013-03-22 06:42:00,
2013-03-22 00:47:00,30.0,21.0,26.97,SSW,202,1.0,6.0,63,0.00,,,0.00,Rainwise IP-100,2013-03-22 06:47:00,
2013-03-22 00:52:00,30.0,21.0,26.97,SW,225,0.0,3.0,63,0.00,,,0.00,Rainwise IP-100,2013-03-22 06:52:00,
2013-03-22 00:57:00,30.0,21.0,26.97,WSW,247,1.0,4.0,63,0.00,,,0.00,Rainwise IP-100,2013-03-22 06:57:00,
2013-03-22 01:02:00,30.0,21.0,26.97,WSW,247,1.0,4.0,63,0.00,,,0.00,Rainwise IP-100,2013-03-22 07:02:00,
2013-03-22 01:07:00,30.0,21.0,26.97,WSW,247,0.0,2.0,63,0.00,,,0.00,Rainwise IP-100,2013-03-22 07:07:00,
2013-03-22 01:12:00,30.0,21.0,26.97,WSW,247,1.0,5.0,62,0.00,,,0.00,Rainwise IP-100,2013-03-22 07:12:00,
2013-03-22 01:17:00,30.0,21.0,26.97,SW,225,2.0,6.0,62,0.00,,,0.00,Rainwise IP-100,2013-03-22 07:17:00,
2013-03-22 01:22:00,30.0,21.0,26.96,WSW,247,0.0,6.0,62,0.00,,,0.00,Rainwise IP-100,2013-03-22 07:22:00,
2013-03-22 01:27:00,30.0,21.0,26.96,WSW,247,0.0,3.0,63,0.00,,,0.00,Rainwise IP-100,2013-03-22 07:27:00,
2013-03-22 01:32:00,29.0,18.0,26.97,WSW,247,0.0,0.0,64,0.00,,,0.00,Rainwise IP-100,2013-03-22 07:32:00,
2013-03-22 01:37:00,29.0,18.0,26.97,WSW,247,0.0,4.0,65,0.00,,,0.00,Rainwise IP-100,2013-03-22 07:37:00,
2013-03-22 01:42:00,28.0,18.0,26.98,WSW,247,2.0,2.0,67,0.00,,,0.00,Rainwise IP-100,2013-03-22 07:42:00,
2013-03-22 01:47:00,28.0,18.0,26.98,WNW,292,1.0,5.0,67,0.00,,,0.00,Rainwise IP-100,2013-03-22 07:47:00,
2013-03-22 01:52:00,28.0,18.0,26.98,WNW,292,0.0,5.0,68,0.00,,,0.00,Rainwise IP-100,2013-03-22 07:52:00,
2013-03-22 01:57:00,28.0,18.0,26.98,South,180,3.0,3.0,69,0.00,,,0.00,Rainwise IP-100,2013-03-22 07:57:00,
2013-03-22 02:02:00,28.0,18.0,26.97,South,180,1.0,4.0,68,0.00,,,0.00,Rainwise IP-100,2013-03-22 08:02:00,
2013-03-22 02:07:00,28.0,18.0,26.97,South,180,0.0,2.0,67,0.00,,,0.00,Rainwise IP-100,2013-03-22 08:07:00,
2013-03-22 02:12:00,28.0,18.0,26.97,South,180,0.0,0.0,68,0.00,,,0.00,Rainwise IP-100,2013-03-22 08:12:00,
2013-03-22 02:17:00,27.0,18.0,26.97,South,180,0.0,0.0,69,0.00,,,0.00,Rainwise IP-100,2013-03-22 08:17:00,
2013-03-22 02:22:00,26.0,18.0,26.98,South,180,0.0,0.0,72,0.00,,,0.00,Rainwise IP-100,2013-03-22 08:22:00,
2013-03-22 02:27:00,26.0,18.0,26.98,South,180,0.0,0.0,74,0.00,,,0.00,Rainwise IP-100,2013-03-22 08:27:00,
2013-03-22 02:32:00,26.0,18.0,26.98,NNW,337,1.0,3.0,74,0.00,,,0.00,Rainwise IP-100,2013-03-22 08:32:00,
2013-03-22 02:37:00,26.0,18.0,26.98,NNW,337,2.0,2.0,74,0.00,,,0.00,Rainwise IP-100,2013-03-22 08:37:00,
2013-03-22 02:42:00,25.0,21.0,26.99,NNW,337,0.0,3.0,76,0.00,,,0.00,Rainwise IP-100,2013-03-22 08:42:00,
2013-03-22 02:47:00,25.0,21.0,26.99,NNW,337,0.0,0.0,77,0.00,,,0.00,Rainwise IP-100,2013-03-22 08:47:00,
2013-03-22 02:52:00,26.0,21.0,26.98,SW,225,2.0,4.0,75,0.00,,,0.00,Rainwise IP-100,2013-03-22 08:52:00,
2013-03-22 02:57:00,27.0,21.0,26.98,NNE,22,1.0,7.0,70,0.00,,,0.00,Rainwise IP-100,2013-03-22 08:57:00,
2013-03-22 03:02:00,27.0,21.0,26.97,SSW,202,0.0,4.0,70,0.00,,,0.00,Rainwise IP-100,2013-03-22 09:02:00,
2013-03-22 03:07:00,27.0,21.0,26.97,West,270,3.0,5.0,70,0.00,,,0.00,Rainwise IP-100,2013-03-22 09:07:00,
2013-03-22 03:12:00,27.0,21.0,26.97,West,270,3.0,6.0,70,0.00,,,0.00,Rainwise IP-100,2013-03-22 09:12:00,
2013-03-22 03:17:00,27.0,21.0,26.97,West,270,3.0,4.0,71,0.00,,,0.00,Rainwise IP-100,2013-03-22 09:17:00,
2013-03-22 03:22:00,27.0,21.0,26.98,West,270,3.0,6.0,72,0.00,,,0.00,Rainwise IP-100,2013-03-22 09:22:00,
2013-03-22 03:27:00,27.0,21.0,26.98,West,270,2.0,7.0,72,0.00,,,0.00,Rainwise IP-100,2013-03-22 09:27:00,
2013-03-22 03:32:00,27.0,21.0,26.98,West,270,2.0,6.0,73,0.00,,,0.00,Rainwise IP-100,2013-03-22 09:32:00,
2013-03-22 03:37:00,27.0,21.0,26.98,WSW,247,1.0,6.0,73,0.00,,,0.00,Rainwise IP-100,2013-03-22 09:37:00,
2013-03-22 03:42:00,27.0,21.0,26.98,WSW,247,1.0,6.0,75,0.00,,,0.00,Rainwise IP-100,2013-03-22 09:42:00,
2013-03-22 03:48:00,27.0,21.0,26.98,SSW,202,0.0,5.0,75,0.00,,,0.00,Rainwise IP-100,2013-03-22 09:48:00,
2013-03-22 03:53:00,27.0,23.0,26.98,SSW,202,1.0,7.0,77,0.00,,,0.00,Rainwise IP-100,2013-03-22 09:53:00,
2013-03-22 03:58:00,27.0,23.0,26.98,WSW,247,2.0,9.0,78,0.00,,,0.00,Rainwise IP-100,2013-03-22 09:58:00,
2013-03-22 04:03:00,27.0,23.0,26.98,SW,225,2.0,6.0,78,0.00,,,0.00,Rainwise IP-100,2013-03-22 10:03:00,
2013-03-22 04:08:00,27.0,23.0,26.98,WSW,247,3.0,6.0,79,0.00,,,0.00,Rainwise IP-100,2013-03-22 10:08:00,
2013-03-22 04:13:00,27.0,23.0,26.98,West,270,5.0,6.0,80,0.00,,,0.00,Rainwise IP-100,2013-03-22 10:13:00,
2013-03-22 04:18:00,27.0,23.0,26.98,WSW,247,3.0,6.0,80,0.00,,,0.00,Rainwise IP-100,2013-03-22 10:18:00,
2013-03-22 04:23:00,27.0,23.0,26.97,West,270,3.0,7.0,80,0.00,,,0.00,Rainwise IP-100,2013-03-22 10:23:00,
2013-03-22 04:28:00,27.0,23.0,26.97,West,270,3.0,4.0,78,0.00,,,0.00,Rainwise IP-100,2013-03-22 10:28:00,
2013-03-22 04:33:00,27.0,23.0,26.98,West,270,2.0,4.0,77,0.00,,,0.00,Rainwise IP-100,2013-03-22 10:33:00,
2013-03-22 04:38:00,27.0,23.0,26.98,West,270,0.0,4.0,78,0.00,,,0.00,Rainwise IP-100,2013-03-22 10:38:00,
2013-03-22 04:43:00,27.0,23.0,26.97,SW,225,1.0,5.0,78,0.00,,,0.00,Rainwise IP-100,2013-03-22 10:43:00,
2013-03-22 04:48:00,27.0,23.0,26.97,SW,225,3.0,6.0,80,0.00,,,0.00,Rainwise IP-100,2013-03-22 10:48:00,
2013-03-22 04:53:00,27.0,23.0,26.97,WSW,247,1.0,7.0,80,0.00,,,0.00,Rainwise IP-100,2013-03-22 10:53:00,
2013-03-22 04:58:00,27.0,23.0,26.97,WSW,247,2.0,4.0,81,0.00,,,0.00,Rainwise IP-100,2013-03-22 10:58:00,
2013-03-22 05:03:00,27.0,23.0,26.97,South,180,1.0,7.0,80,0.00,,,0.00,Rainwise IP-100,2013-03-22 11:03:00,
2013-03-22 05:08:00,27.0,23.0,26.97,WSW,247,3.0,6.0,81,0.00,,,0.00,Rainwise IP-100,2013-03-22 11:08:00,
2013-03-22 05:13:00,27.0,23.0,26.97,WSW,247,1.0,6.0,81,0.00,,,0.00,Rainwise IP-100,2013-03-22 11:13:00,
2013-03-22 05:18:00,27.0,23.0,26.97,WSW,247,2.0,6.0,80,0.00,,,0.00,Rainwise IP-100,2013-03-22 11:18:00,
2013-03-22 05:23:00,28.0,23.0,26.97,WSW,247,7.0,7.0,80,0.00,,,0.00,Rainwise IP-100,2013-03-22 11:23:00,
2013-03-22 05:28:00,27.0,23.0,26.97,South,180,0.0,7.0,80,0.00,,,0.00,Rainwise IP-100,2013-03-22 11:28:00,
2013-03-22 05:33:00,27.0,23.0,26.97,SSW,202,0.0,7.0,80,0.00,,,0.00,Rainwise IP-100,2013-03-22 11:33:00,
2013-03-22 05:38:00,27.0,23.0,26.97,SSW,202,2.0,6.0,81,0.00,,,0.00,Rainwise IP-100,2013-03-22 11:38:00,
2013-03-22 05:43:00,27.0,23.0,26.99,WSW,247,3.0,5.0,82,0.00,,,0.00,Rainwise IP-100,2013-03-22 11:43:00,
2013-03-22 05:48:00,27.0,23.0,26.99,South,180,2.0,6.0,83,0.00,,,0.00,Rainwise IP-100,2013-03-22 11:48:00,
2013-03-22 05:53:00,26.0,23.0,26.99,SSW,202,1.0,6.0,86,0.00,,,0.00,Rainwise IP-100,2013-03-22 11:53:00,
2013-03-22 05:58:00,26.0,23.0,26.99,SSE,157,1.0,4.0,87,0.00,,,0.00,Rainwise IP-100,2013-03-22 11:58:00,
2013-03-22 06:03:00,26.0,23.0,26.99,South,180,2.0,5.0,89,0.00,,,0.00,Rainwise IP-100,2013-03-22 12:03:00,
2013-03-22 06:08:00,26.0,23.0,26.99,South,180,4.0,4.0,88,0.00,,,0.00,Rainwise IP-100,2013-03-22 12:08:00,
2013-03-22 06:13:00,26.0,23.0,26.99,South,180,6.0,6.0,88,0.00,,,0.00,Rainwise IP-100,2013-03-22 12:13:00,
2013-03-22 06:18:00,25.0,23.0,26.99,WSW,247,0.0,6.0,88,0.00,,,0.00,Rainwise IP-100,2013-03-22 12:18:00,
2013-03-22 06:23:00,25.0,23.0,27.00,SSW,202,3.0,3.0,88,0.00,,,0.00,Rainwise IP-100,2013-03-22 12:23:00,
2013-03-22 06:28:00,25.0,23.0,27.00,South,180,2.0,4.0,89,0.00,,,0.00,Rainwise IP-100,2013-03-22 12:28:00,
2013-03-22 06:33:00,25.0,23.0,27.00,South,180,0.0,3.0,89,0.00,,,0.00,Rainwise IP-100,2013-03-22 12:33:00,
2013-03-22 06:38:00,24.0,23.0,27.00,South,180,0.0,2.0,89,0.00,,,0.00,Rainwise IP-100,2013-03-22 12:38:00,
2013-03-22 06:43:00,25.0,24.0,27.00,WSW,247,3.0,7.0,91,0.00,,,0.00,Rainwise IP-100,2013-03-22 12:43:00,
2013-03-22 06:48:00,25.0,24.0,27.00,SW,225,2.0,6.0,91,0.00,,,0.00,Rainwise IP-100,2013-03-22 12:48:00,
2013-03-22 06:53:00,25.0,23.0,27.00,WSW,247,2.0,4.0,89,0.00,,,0.00,Rainwise IP-100,2013-03-22 12:53:00,
2013-03-22 06:58:00,25.0,24.0,27.00,WSW,247,0.0,4.0,90,0.00,,,0.00,Rainwise IP-100,2013-03-22 12:58:00,
2013-03-22 07:03:00,25.0,24.0,27.00,SW,225,0.0,4.0,91,0.00,,,0.00,Rainwise IP-100,2013-03-22 13:03:00,
2013-03-22 07:08:00,25.0,24.0,27.00,SW,225,0.0,3.0,91,0.00,,,0.00,Rainwise IP-100,2013-03-22 13:08:00,
2013-03-22 07:13:00,25.0,24.0,27.01,SSW,202,3.0,4.0,92,0.00,,,0.00,Rainwise IP-100,2013-03-22 13:13:00,
2013-03-22 07:18:00,25.0,24.0,27.01,SW,225,2.0,4.0,91,0.00,,,0.00,Rainwise IP-100,2013-03-22 13:18:00,
2013-03-22 07:23:00,24.0,23.0,27.01,WSW,247,1.0,4.0,94,0.00,,,0.00,Rainwise IP-100,2013-03-22 13:23:00,
2013-03-22 07:28:00,24.0,23.0,27.01,SW,225,3.0,6.0,94,0.00,,,0.00,Rainwise IP-100,2013-03-22 13:28:00,
2013-03-22 07:33:00,24.0,23.0,27.01,SSW,202,0.0,4.0,93,0.00,,,0.00,Rainwise IP-100,2013-03-22 13:33:00,
2013-03-22 07:38:00,24.0,23.0,27.01,SSW,202,1.0,3.0,93,0.00,,,0.00,Rainwise IP-100,2013-03-22 13:38:00,
2013-03-22 07:43:00,24.0,23.0,27.02,WSW,247,1.0,3.0,93,0.00,,,0.00,Rainwise IP-100,2013-03-22 13:43:00,
2013-03-22 07:48:00,23.0,21.0,27.02,WSW,247,0.0,2.0,95,0.00,,,0.00,Rainwise IP-100,2013-03-22 13:48:00,
2013-03-22 07:53:00,24.0,23.0,27.02,WSW,247,0.0,5.0,96,0.00,,,0.00,Rainwise IP-100,2013-03-22 13:53:00,
2013-03-22 07:58:00,24.0,23.0,27.02,SW,225,1.0,6.0,96,0.00,,,0.00,Rainwise IP-100,2013-03-22 13:58:00,
2013-03-22 08:03:00,24.0,23.0,27.02,SW,225,0.0,5.0,96,0.00,,,0.00,Rainwise IP-100,2013-03-22 14:03:00,
2013-03-22 08:08:00,24.0,23.0,27.02,SW,225,0.0,2.0,95,0.00,,,0.00,Rainwise IP-100,2013-03-22 14:08:00,
2013-03-22 08:13:00,24.0,23.0,27.03,WSW,247,2.0,4.0,95,0.00,,,0.00,Rainwise IP-100,2013-03-22 14:13:00,
2013-03-22 08:18:00,25.0,24.0,27.03,WSW,247,3.0,4.0,94,0.00,,,0.00,Rainwise IP-100,2013-03-22 14:18:00,
2013-03-22 08:24:00,25.0,24.0,27.02,West,270,1.0,6.0,92,0.00,,,0.00,Rainwise IP-100,2013-03-22 14:24:00,
2013-03-22 08:29:00,25.0,24.0,27.02,West,270,2.0,5.0,91,0.00,,,0.00,Rainwise IP-100,2013-03-22 14:29:00,
2013-03-22 08:34:00,25.0,24.0,27.02,West,270,1.0,5.0,91,0.00,,,0.00,Rainwise IP-100,2013-03-22 14:34:00,
2013-03-22 08:39:00,25.0,24.0,27.02,West,270,0.0,2.0,91,0.00,,,0.00,Rainwise IP-100,2013-03-22 14:39:00,
2013-03-22 08:44:00,25.0,24.0,27.02,West,270,2.0,3.0,91,0.00,,,0.00,Rainwise IP-100,2013-03-22 14:44:00,
2013-03-22 08:49:00,25.0,24.0,27.02,West,270,0.0,3.0,91,0.00,,,0.00,Rainwise IP-100,2013-03-22 14:49:00,
2013-03-22 08:54:00,26.0,24.0,27.01,West,270,1.0,3.0,90,0.00,,,0.00,Rainwise IP-100,2013-03-22 14:54:00,
2013-03-22 08:59:00,27.0,24.0,27.01,SSW,202,0.0,2.0,88,0.00,,,0.00,Rainwise IP-100,2013-03-22 14:59:00,
2013-03-22 09:04:00,28.0,24.0,27.01,West,270,1.0,6.0,87,0.00,,,0.00,Rainwise IP-100,2013-03-22 15:04:00,
2013-03-22 09:09:00,29.0,26.0,27.01,West,270,0.0,4.0,85,0.00,,,0.00,Rainwise IP-100,2013-03-22 15:09:00,
2013-03-22 09:14:00,29.0,24.0,27.00,West,270,4.0,5.0,82,0.00,,,0.00,Rainwise IP-100,2013-03-22 15:14:00,
2013-03-22 09:19:00,29.0,24.0,27.00,West,270,4.0,6.0,82,0.00,,,0.00,Rainwise IP-100,2013-03-22 15:19:00,
2013-03-22 09:24:00,29.0,24.0,27.00,WNW,292,2.0,5.0,82,0.00,,,0.00,Rainwise IP-100,2013-03-22 15:24:00,
2013-03-22 09:29:00,29.0,24.0,27.00,West,270,1.0,6.0,81,0.00,,,0.00,Rainwise IP-100,2013-03-22 15:29:00,
2013-03-22 09:34:00,29.0,24.0,27.00,WSW,247,3.0,6.0,80,0.00,,,0.00,Rainwise IP-100,2013-03-22 15:34:00,
2013-03-22 09:39:00,29.0,24.0,27.00,West,270,5.0,8.0,82,0.00,,,0.00,Rainwise IP-100,2013-03-22 15:39:00,
2013-03-22 09:44:00,29.0,24.0,27.01,SSW,202,0.0,7.0,84,0.00,,,0.00,Rainwise IP-100,2013-03-22 15:44:00,
2013-03-22 09:49:00,30.0,26.0,27.01,NW,315,2.0,4.0,83,0.00,,,0.00,Rainwise IP-100,2013-03-22 15:49:00,
2013-03-22 09:54:00,30.0,26.0,27.00,WSW,247,1.0,4.0,82,0.00,,,0.00,Rainwise IP-100,2013-03-22 15:54:00,
2013-03-22 09:59:00,30.0,26.0,27.00,WSW,247,0.0,2.0,80,0.00,,,0.00,Rainwise IP-100,2013-03-22 15:59:00,
2013-03-22 10:04:00,30.0,24.0,27.00,West,270,0.0,6.0,78,0.00,,,0.00,Rainwise IP-100,2013-03-22 16:04:00,
2013-03-22 10:09:00,31.0,24.0,27.00,SSW,202,1.0,3.0,78,0.00,,,0.00,Rainwise IP-100,2013-03-22 16:09:00,
2013-03-22 10:14:00,32.0,26.0,26.99,NNW,337,3.0,6.0,76,0.00,,,0.00,Rainwise IP-100,2013-03-22 16:14:00,
2013-03-22 10:19:00,31.0,24.0,26.99,WNW,292,3.0,7.0,75,0.00,,,0.00,Rainwise IP-100,2013-03-22 16:19:00,
2013-03-22 10:24:00,31.0,24.0,27.00,ENE,67,5.0,6.0,76,0.00,,,0.00,Rainwise IP-100,2013-03-22 16:24:00,
2013-03-22 10:29:00,31.0,24.0,27.00,ESE,112,3.0,6.0,75,0.00,,,0.00,Rainwise IP-100,2013-03-22 16:29:00,
2013-03-22 10:34:00,32.0,24.0,26.99,East,90,6.0,6.0,72,0.00,,,0.00,Rainwise IP-100,2013-03-22 16:34:00,
2013-03-22 10:39:00,33.0,24.0,26.99,SSE,157,2.0,6.0,69,0.00,,,0.00,Rainwise IP-100,2013-03-22 16:39:00,
2013-03-22 10:44:00,34.0,24.0,26.98,ENE,67,2.0,8.0,67,0.00,,,0.00,Rainwise IP-100,2013-03-22 16:44:00,
2013-03-22 10:49:00,34.0,24.0,26.98,ENE,67,1.0,7.0,66,0.00,,,0.00,Rainwise IP-100,2013-03-22 16:49:00,
2013-03-22 10:54:00,33.0,23.0,26.98,NE,45,3.0,7.0,64,0.00,,,0.00,Rainwise IP-100,2013-03-22 16:54:00,
2013-03-22 10:59:00,33.0,24.0,26.98,NNE,22,6.0,7.0,66,0.00,,,0.00,Rainwise IP-100,2013-03-22 16:59:00,
2013-03-22 11:04:00,33.0,23.0,26.98,North,360,2.0,7.0,63,0.00,,,0.00,Rainwise IP-100,2013-03-22 17:04:00,
2013-03-22 11:09:00,34.0,23.0,26.98,SE,135,3.0,6.0,62,0.00,,,0.00,Rainwise IP-100,2013-03-22 17:09:00,
2013-03-22 11:14:00,34.0,23.0,26.98,NE,45,0.0,6.0,61,0.00,,,0.00,Rainwise IP-100,2013-03-22 17:14:00,
2013-03-22 11:19:00,33.0,23.0,26.98,WNW,292,7.0,7.0,62,0.00,,,0.00,Rainwise IP-100,2013-03-22 17:19:00,
2013-03-22 11:24:00,33.0,23.0,26.99,WNW,292,2.0,7.0,63,0.00,,,0.00,Rainwise IP-100,2013-03-22 17:24:00,
2013-03-22 11:29:00,34.0,23.0,26.99,North,360,1.0,6.0,61,0.00,,,0.00,Rainwise IP-100,2013-03-22 17:29:00,
2013-03-22 11:34:00,35.0,24.0,26.97,WSW,247,2.0,9.0,64,0.00,,,0.00,Rainwise IP-100,2013-03-22 17:34:00,
2013-03-22 11:39:00,35.0,24.0,26.97,SSW,202,3.0,7.0,66,0.00,,,0.00,Rainwise IP-100,2013-03-22 17:39:00,
2013-03-22 11:44:00,35.0,24.0,26.97,SW,225,2.0,7.0,67,0.00,,,0.00,Rainwise IP-100,2013-03-22 17:44:00,
2013-03-22 11:49:00,36.0,24.0,26.97,South,180,2.0,6.0,64,0.00,,,0.00,Rainwise IP-100,2013-03-22 17:49:00,
2013-03-22 11:54:00,36.0,24.0,26.97,SSE,157,3.0,8.0,60,0.00,,,0.00,Rainwise IP-100,2013-03-22 17:54:00,
2013-03-22 11:59:00,35.0,23.0,26.97,SW,225,1.0,9.0,62,0.00,,,0.00,Rainwise IP-100,2013-03-22 17:59:00,
2013-03-22 12:04:00,34.0,24.0,26.98,SSW,202,3.0,9.0,64,0.00,,,0.00,Rainwise IP-100,2013-03-22 18:04:00,
2013-03-22 12:09:00,34.0,24.0,26.98,WSW,247,3.0,8.0,66,0.00,,,0.00,Rainwise IP-100,2013-03-22 18:09:00,
2013-03-22 12:14:00,33.0,24.0,26.99,South,180,3.0,10.0,67,0.00,,,0.00,Rainwise IP-100,2013-03-22 18:14:00,
2013-03-22 12:19:00,33.0,24.0,26.99,South,180,4.0,7.0,68,0.00,,,0.00,Rainwise IP-100,2013-03-22 18:19:00,
2013-03-22 12:24:00,32.0,24.0,26.99,SSW,202,4.0,10.0,70,0.00,,,0.00,Rainwise IP-100,2013-03-22 18:24:00,
2013-03-22 12:29:00,32.0,24.0,26.99,South,180,3.0,9.0,72,0.00,,,0.00,Rainwise IP-100,2013-03-22 18:29:00,
2013-03-22 12:34:00,33.0,24.0,27.00,SSE,157,4.0,12.0,69,0.00,,,0.00,Rainwise IP-100,2013-03-22 18:34:00,
2013-03-22 12:39:00,32.0,24.0,27.00,South,180,10.0,10.0,70,0.00,,,0.00,Rainwise IP-100,2013-03-22 18:39:00,
2013-03-22 12:44:00,33.0,24.0,27.00,SW,225,4.0,10.0,71,0.00,,,0.00,Rainwise IP-100,2013-03-22 18:44:00,
2013-03-22 12:49:00,33.0,24.0,27.00,SSE,157,6.0,10.0,68,0.00,,,0.00,Rainwise IP-100,2013-03-22 18:49:00,
2013-03-22 12:54:00,34.0,24.0,26.99,SSE,157,4.0,8.0,65,0.00,,,0.00,Rainwise IP-100,2013-03-22 18:54:00,
2013-03-22 13:00:00,34.0,23.0,26.99,South,180,4.0,7.0,61,0.00,,,0.00,Rainwise IP-100,2013-03-22 19:00:00,
2013-03-22 13:05:00,33.0,21.0,26.99,SE,135,6.0,8.0,60,0.00,,,0.00,Rainwise IP-100,2013-03-22 19:05:00,
2013-03-22 13:10:00,34.0,21.0,26.99,SE,135,4.0,9.0,54,0.00,,,0.00,Rainwise IP-100,2013-03-22 19:10:00,
2013-03-22 13:15:00,34.0,21.0,26.99,SSW,202,6.0,7.0,54,0.00,,,0.00,Rainwise IP-100,2013-03-22 19:15:00,
2013-03-22 13:20:00,34.0,21.0,26.99,East,90,1.0,7.0,55,0.00,,,0.00,Rainwise IP-100,2013-03-22 19:20:00,
2013-03-22 13:25:00,34.0,21.0,26.99,WNW,292,5.0,7.0,54,0.00,,,0.00,Rainwise IP-100,2013-03-22 19:25:00,
2013-03-22 13:30:00,34.0,18.0,26.99,South,180,4.0,7.0,52,0.00,,,0.00,Rainwise IP-100,2013-03-22 19:30:00,
2013-03-22 13:35:00,36.0,21.0,26.98,South,180,9.0,9.0,50,0.00,,,0.00,Rainwise IP-100,2013-03-22 19:35:00,
2013-03-22 13:40:00,37.0,21.0,26.98,SSE,157,8.0,10.0,48,0.00,,,0.00,Rainwise IP-100,2013-03-22 19:40:00,
2013-03-22 13:45:00,37.0,21.0,26.97,SSW,202,6.0,12.0,50,0.00,,,0.00,Rainwise IP-100,2013-03-22 19:45:00,
2013-03-22 13:50:00,38.0,18.0,26.97,SSW,202,3.0,9.0,45,0.00,,,0.00,Rainwise IP-100,2013-03-22 19:50:00,
2013-03-22 13:55:00,37.0,18.0,26.97,South,180,7.0,10.0,47,0.00,,,0.00,Rainwise IP-100,2013-03-22 19:55:00,
2013-03-22 14:00:00,35.0,21.0,26.97,SW,225,5.0,13.0,56,0.00,,,0.00,Rainwise IP-100,2013-03-22 20:00:00,
2013-03-22 14:05:00,34.0,18.0,26.98,WSW,247,3.0,9.0,51,0.00,,,0.00,Rainwise IP-100,2013-03-22 20:05:00,
2013-03-22 14:10:00,33.0,21.0,26.98,WNW,292,8.0,12.0,56,0.00,,,0.00,Rainwise IP-100,2013-03-22 20:10:00,
2013-03-22 14:15:00,32.0,23.0,27.00,WSW,247,5.0,13.0,66,0.00,,,0.00,Rainwise IP-100,2013-03-22 20:15:00,
2013-03-22 14:20:00,31.0,23.0,27.00,NNW,337,7.0,14.0,72,0.00,,,0.00,Rainwise IP-100,2013-03-22 20:20:00,
2013-03-22 14:25:00,30.0,23.0,27.02,NNW,337,6.0,13.0,73,0.00,,,0.00,Rainwise IP-100,2013-03-22 20:25:00,
2013-03-22 14:30:00,30.0,23.0,27.02,NNE,22,0.0,9.0,73,0.00,,,0.00,Rainwise IP-100,2013-03-22 20:30:00,
2013-03-22 14:35:00,31.0,23.0,27.02,West,270,5.0,8.0,73,0.00,,,0.00,Rainwise IP-100,2013-03-22 20:35:00,
2013-03-22 14:40:00,30.0,24.0,27.02,WNW,292,3.0,10.0,75,0.00,,,0.00,Rainwise IP-100,2013-03-22 20:40:00,
2013-03-22 14:45:00,30.0,24.0,27.02,NNW,337,3.0,10.0,77,0.00,,,0.00,Rainwise IP-100,2013-03-22 20:45:00,
2013-03-22 14:50:00,29.0,24.0,27.02,WNW,292,6.0,10.0,79,0.00,,,0.00,Rainwise IP-100,2013-03-22 20:50:00,
2013-03-22 14:55:00,29.0,24.0,27.04,SW,225,4.0,7.0,81,0.00,,,0.00,Rainwise IP-100,2013-03-22 20:55:00,
2013-03-22 15:00:00,29.0,24.0,27.04,WSW,247,0.0,6.0,80,0.00,,,0.00,Rainwise IP-100,2013-03-22 21:00:00,
2013-03-22 15:05:00,29.0,24.0,27.04,WSW,247,0.0,5.0,82,0.00,,,0.00,Rainwise IP-100,2013-03-22 21:05:00,
2013-03-22 15:10:00,29.0,24.0,27.04,SSW,202,2.0,8.0,80,0.00,,,0.00,Rainwise IP-100,2013-03-22 21:10:00,
2013-03-22 15:15:00,28.0,24.0,27.05,SSE,157,4.0,6.0,85,0.00,,,0.00,Rainwise IP-100,2013-03-22 21:15:00,
2013-03-22 15:20:00,28.0,24.0,27.05,SE,135,6.0,8.0,85,0.00,,,0.00,Rainwise IP-100,2013-03-22 21:20:00,
2013-03-22 15:25:00,28.0,24.0,27.05,SE,135,6.0,7.0,89,0.00,,,0.00,Rainwise IP-100,2013-03-22 21:25:00,
2013-03-22 15:30:00,28.0,26.0,27.05,SSE,157,5.0,7.0,90,0.00,,,0.00,Rainwise IP-100,2013-03-22 21:30:00,
2013-03-22 15:35:00,28.0,26.0,27.05,WSW,247,0.0,8.0,90,0.00,,,0.00,Rainwise IP-100,2013-03-22 21:35:00,
2013-03-22 15:40:00,28.0,26.0,27.05,South,180,0.0,8.0,90,0.00,,,0.00,Rainwise IP-100,2013-03-22 21:40:00,
2013-03-22 15:45:00,28.0,24.0,27.06,SW,225,1.0,7.0,89,0.00,,,0.00,Rainwise IP-100,2013-03-22 21:45:00,
2013-03-22 15:50:00,27.0,26.0,27.06,West,270,3.0,6.0,91,0.00,,,0.00,Rainwise IP-100,2013-03-22 21:50:00,
2013-03-22 15:55:00,27.0,26.0,27.06,WNW,292,6.0,13.0,93,0.00,,,0.00,Rainwise IP-100,2013-03-22 21:55:00,
2013-03-22 16:00:00,27.0,28.0,27.06,WNW,292,6.0,10.0,97,0.00,,,0.00,Rainwise IP-100,2013-03-22 22:00:00,
2013-03-22 16:05:00,27.0,28.0,27.07,West,270,6.0,9.0,97,0.00,,,0.00,Rainwise IP-100,2013-03-22 22:05:00,
2013-03-22 16:10:00,27.0,28.0,27.07,WNW,292,6.0,9.0,98,0.00,,,0.00,Rainwise IP-100,2013-03-22 22:10:00,
2013-03-22 16:15:00,27.0,28.0,27.07,NW,315,6.0,12.0,98,0.00,,,0.00,Rainwise IP-100,2013-03-22 22:15:00,
2013-03-22 16:20:00,27.0,28.0,27.07,West,270,7.0,8.0,98,0.00,,,0.00,Rainwise IP-100,2013-03-22 22:20:00,
2013-03-22 16:25:00,27.0,28.0,27.07,WNW,292,3.0,9.0,98,0.00,,,0.00,Rainwise IP-100,2013-03-22 22:25:00,
2013-03-22 16:30:00,27.0,28.0,27.07,NNW,337,4.0,7.0,98,0.00,,,0.00,Rainwise IP-100,2013-03-22 22:30:00,
2013-03-22 16:35:00,28.0,28.0,27.07,WSW,247,0.0,6.0,99,0.00,,,0.00,Rainwise IP-100,2013-03-22 22:35:00,
2013-03-22 16:40:00,28.0,28.0,27.07,WSW,247,0.0,2.0,98,0.00,,,0.00,Rainwise IP-100,2013-03-22 22:40:00,
2013-03-22 16:45:00,28.0,28.0,27.07,NW,315,2.0,4.0,98,0.00,,,0.00,Rainwise IP-100,2013-03-22 22:45:00,
2013-03-22 16:50:00,28.0,26.0,27.07,WNW,292,2.0,7.0,95,0.00,,,0.00,Rainwise IP-100,2013-03-22 22:50:00,
2013-03-22 16:55:00,28.0,28.0,27.07,West,270,1.0,7.0,97,0.00,,,0.00,Rainwise IP-100,2013-03-22 22:55:00,
2013-03-22 17:00:00,28.0,28.0,27.07,West,270,0.0,4.0,98,0.00,,,0.00,Rainwise IP-100,2013-03-22 23:00:00,
2013-03-22 17:05:00,28.0,26.0,27.07,West,270,0.0,0.0,96,0.00,,,0.00,Rainwise IP-100,2013-03-22 23:05:00,
2013-03-22 17:10:00,28.0,26.0,27.07,SE,135,3.0,0.0,96,0.00,,,0.00,Rainwise IP-100,2013-03-22 23:10:00,
2013-03-22 17:15:00,28.0,26.0,27.07,SE,135,2.0,6.0,96,0.00,,,0.00,Rainwise IP-100,2013-03-22 23:15:00,
2013-03-22 17:20:00,28.0,26.0,27.07,SSE,157,5.0,6.0,95,0.00,,,0.00,Rainwise IP-100,2013-03-22 23:20:00,
2013-03-22 17:25:00,28.0,26.0,27.07,South,180,5.0,8.0,95,0.00,,,0.00,Rainwise IP-100,2013-03-22 23:25:00,
2013-03-22 17:30:00,28.0,26.0,27.07,SSE,157,5.0,7.0,95,0.00,,,0.00,Rainwise IP-100,2013-03-22 23:30:00,
2013-03-22 17:35:00,28.0,26.0,27.08,South,180,4.0,8.0,95,0.00,,,0.00,Rainwise IP-100,2013-03-22 23:35:00,
2013-03-22 17:40:00,28.0,26.0,27.08,SSE,157,2.0,7.0,95,0.00,,,0.00,Rainwise IP-100,2013-03-22 23:40:00,
2013-03-22 17:45:00,28.0,26.0,27.08,SSW,202,0.0,7.0,92,0.00,,,0.00,Rainwise IP-100,2013-03-22 23:45:00,
2013-03-22 17:50:00,28.0,26.0,27.08,WSW,247,1.0,6.0,92,0.00,,,0.00,Rainwise IP-100,2013-03-22 23:50:00,
2013-03-22 17:55:00,28.0,26.0,27.08,SW,225,0.0,4.0,92,0.00,,,0.00,Rainwise IP-100,2013-03-22 23:55:00,
2013-03-22 18:00:00,28.0,26.0,27.08,SSW,202,0.0,3.0,92,0.00,,,0.00,Rainwise IP-100,2013-03-23 00:00:00,
2013-03-22 18:05:00,28.0,24.0,27.08,South,180,1.0,7.0,88,0.00,,,0.00,Rainwise IP-100,2013-03-23 00:05:00,
2013-03-22 18:10:00,28.0,24.0,27.08,South,180,2.0,6.0,89,0.00,,,0.00,Rainwise IP-100,2013-03-23 00:10:00,
2013-03-22 18:15:00,28.0,24.0,27.08,East,90,1.0,5.0,85,0.00,,,0.00,Rainwise IP-100,2013-03-23 00:15:00,
2013-03-22 18:20:00,29.0,26.0,27.08,SE,135,2.0,4.0,86,0.00,,,0.00,Rainwise IP-100,2013-03-23 00:20:00,
2013-03-22 18:25:00,29.0,26.0,27.08,ENE,67,3.0,3.0,85,0.00,,,0.00,Rainwise IP-100,2013-03-23 00:25:00,
2013-03-22 18:30:00,29.0,26.0,27.08,ENE,67,1.0,4.0,85,0.00,,,0.00,Rainwise IP-100,2013-03-23 00:30:00,
2013-03-22 18:35:00,29.0,24.0,27.08,East,90,2.0,3.0,82,0.00,,,0.00,Rainwise IP-100,2013-03-23 00:35:00,
2013-03-22 18:40:00,29.0,24.0,27.08,East,90,0.0,3.0,82,0.00,,,0.00,Rainwise IP-100,2013-03-23 00:40:00,
2013-03-22 18:45:00,29.0,24.0,27.08,East,90,0.0,1.0,84,0.00,,,0.00,Rainwise IP-100,2013-03-23 00:45:00,
2013-03-22 18:50:00,29.0,24.0,27.08,East,90,0.0,0.0,83,0.00,,,0.00,Rainwise IP-100,2013-03-23 00:50:00,
2013-03-22 18:55:00,29.0,24.0,27.08,East,90,0.0,0.0,83,0.00,,,0.00,Rainwise IP-100,2013-03-23 00:55:00,
2013-03-22 19:00:00,29.0,26.0,27.08,East,90,0.0,0.0,86,0.00,,,0.00,Rainwise IP-100,2013-03-23 01:00:00,
2013-03-22 19:05:00,28.0,24.0,27.09,East,90,0.0,0.0,85,0.00,,,0.00,Rainwise IP-100,2013-03-23 01:05:00,
2013-03-22 19:10:00,28.0,24.0,27.09,West,270,3.0,6.0,86,0.00,,,0.00,Rainwise IP-100,2013-03-23 01:10:00,
2013-03-22 19:15:00,28.0,24.0,27.09,WNW,292,5.0,6.0,87,0.00,,,0.00,Rainwise IP-100,2013-03-23 01:15:00,
2013-03-22 19:20:00,28.0,24.0,27.09,WNW,292,3.0,6.0,88,0.00,,,0.00,Rainwise IP-100,2013-03-23 01:20:00,
2013-03-22 19:25:00,28.0,24.0,27.10,WNW,292,6.0,6.0,88,0.00,,,0.00,Rainwise IP-100,2013-03-23 01:25:00,
2013-03-22 19:30:00,28.0,24.0,27.10,NW,315,3.0,6.0,88,0.00,,,0.00,Rainwise IP-100,2013-03-23 01:30:00,
2013-03-22 19:35:00,28.0,24.0,27.10,WNW,292,5.0,6.0,89,0.00,,,0.00,Rainwise IP-100,2013-03-23 01:35:00,
2013-03-22 19:40:00,28.0,26.0,27.10,NNW,337,4.0,9.0,93,0.00,,,0.00,Rainwise IP-100,2013-03-23 01:40:00,
2013-03-22 19:45:00,28.0,26.0,27.11,NW,315,7.0,7.0,95,0.00,,,0.00,Rainwise IP-100,2013-03-23 01:45:00,
2013-03-22 19:50:00,27.0,26.0,27.11,WNW,292,1.0,7.0,95,0.00,,,0.00,Rainwise IP-100,2013-03-23 01:50:00,
2013-03-22 19:56:00,27.0,28.0,27.11,NW,315,0.0,5.0,97,0.00,,,0.00,Rainwise IP-100,2013-03-23 01:56:00,
2013-03-22 20:01:00,27.0,26.0,27.11,NNW,337,1.0,4.0,96,0.00,,,0.00,Rainwise IP-100,2013-03-23 02:01:00,
2013-03-22 20:06:00,27.0,28.0,27.11,North,360,0.0,2.0,98,0.00,,,0.00,Rainwise IP-100,2013-03-23 02:06:00,
2013-03-22 20:11:00,27.0,28.0,27.11,North,360,0.0,0.0,98,0.00,,,0.00,Rainwise IP-100,2013-03-23 02:11:00,
2013-03-22 20:16:00,27.0,28.0,27.12,North,360,0.0,1.0,97,0.00,,,0.00,Rainwise IP-100,2013-03-23 02:16:00,
2013-03-22 20:21:00,27.0,28.0,27.12,West,270,2.0,4.0,97,0.00,,,0.00,Rainwise IP-100,2013-03-23 02:21:00,
2013-03-22 20:26:00,27.0,28.0,27.12,WSW,247,2.0,6.0,97,0.00,,,0.00,Rainwise IP-100,2013-03-23 02:26:00,
2013-03-22 20:31:00,27.0,26.0,27.12,West,270,4.0,7.0,96,0.00,,,0.00,Rainwise IP-100,2013-03-23 02:31:00,
2013-03-22 20:36:00,27.0,26.0,27.13,West,270,6.0,6.0,95,0.00,,,0.00,Rainwise IP-100,2013-03-23 02:36:00,
2013-03-22 20:41:00,27.0,28.0,27.13,West,270,3.0,6.0,97,0.00,,,0.00,Rainwise IP-100,2013-03-23 02:41:00,
2013-03-22 20:46:00,27.0,26.0,27.13,West,270,4.0,5.0,96,0.00,,,0.00,Rainwise IP-100,2013-03-23 02:46:00,
2013-03-22 20:51:00,27.0,28.0,27.13,West,270,0.0,4.0,98,0.00,,,0.00,Rainwise IP-100,2013-03-23 02:51:00,
2013-03-22 20:56:00,26.0,26.0,27.13,West,270,1.0,1.0,98,0.00,,,0.00,Rainwise IP-100,2013-03-23 02:56:00,
2013-03-22 21:01:00,26.0,26.0,27.13,West,270,0.0,4.0,98,0.00,,,0.00,Rainwise IP-100,2013-03-23 03:01:00,
2013-03-22 21:06:00,26.0,26.0,27.14,West,270,0.0,4.0,98,0.00,,,0.00,Rainwise IP-100,2013-03-23 03:06:00,
2013-03-22 21:11:00,26.0,26.0,27.14,NW,315,3.0,3.0,99,0.00,,,0.00,Rainwise IP-100,2013-03-23 03:11:00,
2013-03-22 21:16:00,25.0,26.0,27.14,NW,315,0.0,6.0,99,0.00,,,0.00,Rainwise IP-100,2013-03-23 03:16:00,
2013-03-22 21:21:00,26.0,26.0,27.14,WNW,292,4.0,4.0,99,0.00,,,0.00,Rainwise IP-100,2013-03-23 03:21:00,
2013-03-22 21:26:00,26.0,26.0,27.15,West,270,0.0,4.0,100,0.00,,,0.00,Rainwise IP-100,2013-03-23 03:26:00,
2013-03-22 21:31:00,26.0,26.0,27.15,West,270,0.0,1.0,100,0.00,,,0.00,Rainwise IP-100,2013-03-23 03:31:00,
2013-03-22 21:36:00,26.0,26.0,27.15,SSW,202,2.0,3.0,99,0.00,,,0.00,Rainwise IP-100,2013-03-23 03:36:00,
2013-03-22 21:41:00,25.0,26.0,27.15,SSW,202,0.0,3.0,99,0.00,,,0.00,Rainwise IP-100,2013-03-23 03:41:00,
2013-03-22 21:46:00,25.0,26.0,27.15,SSW,202,0.0,0.0,99,0.00,,,0.00,Rainwise IP-100,2013-03-23 03:46:00,
2013-03-22 21:51:00,25.0,26.0,27.15,SSW,202,0.0,0.0,99,0.00,,,0.00,Rainwise IP-100,2013-03-23 03:51:00,
2013-03-22 21:56:00,25.0,26.0,27.15,SSW,202,0.0,0.0,99,0.00,,,0.00,Rainwise IP-100,2013-03-23 03:56:00,
2013-03-22 22:00:00,25.0,26.0,27.15,SSW,202,0.0,0.0,99,0.00,,,0.00,Rainwise IP-100,2013-03-23 04:00:00,
2013-03-22 22:05:00,24.0,24.0,27.16,SSW,202,0.0,0.0,99,0.00,,,0.00,Rainwise IP-100,2013-03-23 04:05:00,
2013-03-22 22:10:00,24.0,24.0,27.16,SSW,202,0.0,0.0,100,0.00,,,0.00,Rainwise IP-100,2013-03-23 04:10:00,
2013-03-22 22:15:00,24.0,24.0,27.17,SSW,202,0.0,0.0,100,0.00,,,0.00,Rainwise IP-100,2013-03-23 04:15:00,
2013-03-22 22:20:00,24.0,24.0,27.17,SSW,202,0.0,0.0,100,0.00,,,0.00,Rainwise IP-100,2013-03-23 04:20:00,
2013-03-22 22:25:00,24.0,24.0,27.17,SSW,202,0.0,0.0,100,0.00,,,0.00,Rainwise IP-100,2013-03-23 04:25:00,
2013-03-22 22:30:00,24.0,24.0,27.17,SSW,202,0.0,0.0,100,0.00,,,0.00,Rainwise IP-100,2013-03-23 04:30:00,
2013-03-22 22:35:00,24.0,24.0,27.17,SSW,202,0.0,0.0,100,0.00,,,0.00,Rainwise IP-100,2013-03-23 04:35:00,
2013-03-22 22:40:00,23.0,23.0,27.17,SSW,202,0.0,0.0,100,0.00,,,0.00,Rainwise IP-100,2013-03-23 04:40:00,
2013-03-22 22:41:00,23.0,23.0,27.17,SSW,202,0.0,0.0,100,0.00,,,0.00,Rainwise IP-100,2013-03-23 04:41:00,
2013-03-22 22:46:00,23.0,23.0,27.17,SSW,202,0.0,0.0,100,0.00,,,0.00,Rainwise IP-100,2013-03-23 04:46:00,
2013-03-22 22:51:00,23.0,23.0,27.17,SSW,202,0.0,0.0,100,0.00,,,0.00,Rainwise IP-100,2013-03-23 04:51:00,
2013-03-22 22:56:00,23.0,23.0,27.18,SSW,202,0.0,1.0,100,0.00,,,0.00,Rainwise IP-100,2013-03-23 04:56:00,
2013-03-22 23:01:00,23.0,23.0,27.18,SSW,202,0.0,0.0,100,0.00,,,0.00,Rainwise IP-100,2013-03-23 05:01:00,
2013-03-22 23:06:00,23.0,23.0,27.17,SSW,202,0.0,0.0,100,0.00,,,0.00,Rainwise IP-100,2013-03-23 05:06:00,
2013-03-22 23:11:00,23.0,23.0,27.17,SSW,202,0.0,0.0,100,0.00,,,0.00,Rainwise IP-100,2013-03-23 05:11:00,
2013-03-22 23:16:00,23.0,23.0,27.18,SSW,202,0.0,0.0,100,0.00,,,0.00,Rainwise IP-100,2013-03-23 05:16:00,
2013-03-22 23:21:00,23.0,23.0,27.18,SSW,202,0.0,0.0,100,0.00,,,0.00,Rainwise IP-100,2013-03-23 05:21:00,
2013-03-22 23:26:00,22.0,23.0,27.18,SSW,202,0.0,0.0,100,0.00,,,0.00,Rainwise IP-100,2013-03-23 05:26:00,
2013-03-22 23:31:00,22.0,23.0,27.18,SSW,202,0.0,0.0,100,0.00,,,0.00,Rainwise IP-100,2013-03-23 05:31:00,
2013-03-22 23:36:00,22.0,23.0,27.19,SSW,202,0.0,0.0,100,0.00,,,0.00,Rainwise IP-100,2013-03-23 05:36:00,
2013-03-22 23:41:00,22.0,23.0,27.19,SSW,202,0.0,0.0,100,0.00,,,0.00,Rainwise IP-100,2013-03-23 05:41:00,
2013-03-22 23:47:00,23.0,23.0,27.19,SSW,202,0.0,0.0,100,0.00,,,0.00,Rainwise IP-100,2013-03-23 05:47:00,
2013-03-22 23:52:00,23.0,23.0,27.19,SSW,202,0.0,0.0,100,0.00,,,0.00,Rainwise IP-100,2013-03-23 05:52:00,
2013-03-22 23:57:00,24.0,24.0,27.19,WSW,247,3.0,4.0,100,0.00,,,0.00,Rainwise IP-100,2013-03-23 05:57:00,